User: anonymous   Login
Location: Unspecified
(0.0000°N, 0.0000°E)
Time: 12:48:30
(UTC+00:00)
Language:

Skynet 4D - Orbit

View from above orbital plane
View from above orbital plane
View from above satellite
View from above satellite

Ground track
Ground track

The orbit data is extracted from the following two-line orbital elements,

1 25134U 98002A   17262.65206316 -.00000266 +00000-0 +00000-0 0  9996
2 25134 010.6172 030.5899 0003544 136.4671 232.7367 00.99157026071728
Epoch (UTC): 19 September 2017 15:38:58
Eccentricity: 0.0003544
inclination: 10.6172°
perigee height: 36086 km
apogee height: 36117 km
right ascension of ascending node: 30.5899°
argument of perigee: 136.4671°
revolutions per day: 0.99157026
mean anomaly at epoch: 232.7367°
orbit number at epoch: 7172

The dashed part of the orbit path shows where the satellite is in the earth's shadow,  

DLR